Weather reports worldwide

Advertisment
Murcia/Alcantarilla, Spain (8429): temperature & dewpoint: 29.06.2020 13:00:00 - 05.07.2020 13:00:00 (CEST)Murcia/Alcantarilla, Spain (8429): wind speed: 29.06.2020 13:00:00 - 05.07.2020 13:00:00 (CEST)Murcia/Alcantarilla, Spain (8429): wind direction: 29.06.2020 13:00:00 - 05.07.2020 13:00:00 (CEST)Murcia/Alcantarilla, Spain (8429): reduced air pressure: 29.06.2020 13:00:00 - 05.07.2020 13:00:00 (CEST)Murcia/Alcantarilla, Spain (8429): visibility: 29.06.2020 13:00:00 - 05.07.2020 13:00:00 (CEST)
Date & Time tt [°C] td [°C] ff [km/h] ff [kn] dd ppp [hPa] vv [km]
05.07.2020 13:00:00 - - - - - - -
05.07.2020 12:00:00 - - - - - - -
05.07.2020 11:00:00 - - - - - - -
05.07.2020 10:00:00 - - - - - - -
05.07.2020 09:00:00 - - - - - - -
05.07.2020 08:00:00 21,8 18,4 0 0 N 1021,2 30
05.07.2020 07:00:00 - - - - - - -
05.07.2020 06:00:00 - - - - - - -
05.07.2020 05:00:00 - - - - - - -
05.07.2020 04:00:00 - - - - - - -
05.07.2020 03:00:00 - - - - - - -
05.07.2020 02:00:00 - - - - - - -
05.07.2020 01:00:00 - - - - - - -
05.07.2020 00:00:00 - - - - - - -
04.07.2020 23:00:00 - - - - - - -
04.07.2020 22:00:00 - - - - - - -
04.07.2020 21:00:00 - - - - - - -
04.07.2020 20:00:00 - - - - - - -
04.07.2020 19:00:00 - - - - - - -
04.07.2020 18:00:00 - - - - - - -
04.07.2020 17:00:00 - - - - - - -
04.07.2020 16:00:00 - - - - - - -
04.07.2020 15:00:00 - - - - - - -
04.07.2020 14:00:00 - - - - - - -
04.07.2020 13:00:00 - - - - - - -
04.07.2020 12:00:00 - - - - - - -
04.07.2020 11:00:00 - - - - - - -
04.07.2020 10:00:00 - - - - - - -
04.07.2020 09:00:00 - - - - - - -
04.07.2020 08:00:00 24,3 21,0 2 1 N 1020,5 15
04.07.2020 07:00:00 - - - - - - -
04.07.2020 06:00:00 - - - - - - -
04.07.2020 05:00:00 - - - - - - -
04.07.2020 04:00:00 - - - - - - -
04.07.2020 03:00:00 - - - - - - -
04.07.2020 02:00:00 - - - - - - -
04.07.2020 01:00:00 - - - - - - -
04.07.2020 00:00:00 - - - - - - -
03.07.2020 23:00:00 - - - - - - -
03.07.2020 22:00:00 - - - - - - -
03.07.2020 21:00:00 - - - - - - -
03.07.2020 20:00:00 27,8 19,1 22 12 SE 1017,5 25
03.07.2020 19:00:00 - - - - - - -
03.07.2020 18:00:00 - - - - - - -
03.07.2020 17:00:00 - - - - - - -
03.07.2020 16:00:00 - - - - - - -
03.07.2020 15:00:00 - - - - - - -
03.07.2020 14:00:00 32,3 18,8 13 7 E 1017,1 25
03.07.2020 13:00:00 - - - - - - -
03.07.2020 12:00:00 - - - - - - -
03.07.2020 11:00:00 28,8 18,6 8 4 N 1017,0 15
03.07.2020 10:00:00 - - - - - - -
03.07.2020 09:00:00 - - - - - - -
03.07.2020 08:00:00 22,0 19,5 2 1 N 1016,3 8
03.07.2020 07:00:00 - - - - - - -
03.07.2020 06:00:00 - - - - - - -
03.07.2020 05:00:00 - - - - - - -
03.07.2020 04:00:00 - - - - - - -
03.07.2020 03:00:00 - - - - - - -
03.07.2020 02:00:00 - - - - - - -
03.07.2020 01:00:00 - - - - - - -
03.07.2020 00:00:00 - - - - - - -
02.07.2020 23:00:00 - - - - - - -
02.07.2020 22:00:00 - - - - - - -
02.07.2020 21:00:00 - - - - - - -
02.07.2020 20:00:00 31,4 19,7 15 8 ESE 1011,6 30
02.07.2020 19:00:00 - - - - - - -
02.07.2020 18:00:00 - - - - - - -
02.07.2020 17:00:00 - - - - - - -
02.07.2020 16:00:00 - - - - - - -
02.07.2020 15:00:00 - - - - - - -
02.07.2020 14:00:00 37,0 14,9 15 8 ESE 1012,6 30
02.07.2020 13:00:00 - - - - - - -
02.07.2020 12:00:00 - - - - - - -
02.07.2020 11:00:00 32,2 7,8 5 3 ENE 1013,1 50
02.07.2020 10:00:00 - - - - - - -
02.07.2020 09:00:00 - - - - - - -
02.07.2020 08:00:00 22,4 12,1 0 0 N 1012,6 40
02.07.2020 07:00:00 - - - - - - -
02.07.2020 06:00:00 - - - - - - -
02.07.2020 05:00:00 - - - - - - -
02.07.2020 04:00:00 - - - - - - -
02.07.2020 03:00:00 - - - - - - -
02.07.2020 02:00:00 - - - - - - -
02.07.2020 01:00:00 - - - - - - -
02.07.2020 00:00:00 - - - - - - -
01.07.2020 23:00:00 - - - - - - -
01.07.2020 22:00:00 - - - - - - -
01.07.2020 21:00:00 - - - - - - -
01.07.2020 20:00:00 36,8 16,4 9 5 WSW 1009,2 40
01.07.2020 19:00:00 - - - - - - -
01.07.2020 18:00:00 - - - - - - -
01.07.2020 17:00:00 - - - - - - -
01.07.2020 16:00:00 - - - - - - -
01.07.2020 15:00:00 - - - - - - -
01.07.2020 14:00:00 37,3 16,8 8 4 SSE 1011,5 25
01.07.2020 13:00:00 - - - - - - -
01.07.2020 12:00:00 - - - - - - -
01.07.2020 11:00:00 29,7 16,5 4 2 N 1012,4 20
01.07.2020 10:00:00 - - - - - - -
01.07.2020 09:00:00 - - - - - - -
01.07.2020 08:00:00 21,7 17,1 4 2 WSW 1012,6 12
01.07.2020 07:00:00 - - - - - - -
01.07.2020 06:00:00 - - - - - - -
01.07.2020 05:00:00 - - - - - - -
01.07.2020 04:00:00 - - - - - - -
01.07.2020 03:00:00 - - - - - - -
01.07.2020 02:00:00 - - - - - - -
01.07.2020 01:00:00 - - - - - - -
01.07.2020 00:00:00 - - - - - - -
30.06.2020 23:00:00 - - - - - - -
30.06.2020 22:00:00 - - - - - - -
30.06.2020 21:00:00 - - - - - - -
30.06.2020 20:00:00 30,5 15,4 21 11 NE 1011,0 30
30.06.2020 19:00:00 - - - - - - -
30.06.2020 18:00:00 - - - - - - -
30.06.2020 17:00:00 - - - - - - -
30.06.2020 16:00:00 - - - - - - -
30.06.2020 15:00:00 - - - - - - -
30.06.2020 14:00:00 32,3 16,6 15 8 ENE 1013,8 25
30.06.2020 13:00:00 - - - - - - -
30.06.2020 12:00:00 - - - - - - -
30.06.2020 11:00:00 27,0 19,6 8 4 N 1014,5 10
30.06.2020 10:00:00 - - - - - - -
30.06.2020 09:00:00 - - - - - - -
30.06.2020 08:00:00 21,4 19,0 2 1 N 1014,5 9
30.06.2020 07:00:00 - - - - - - -
30.06.2020 06:00:00 - - - - - - -
30.06.2020 05:00:00 - - - - - - -
30.06.2020 04:00:00 - - - - - - -
30.06.2020 03:00:00 - - - - - - -
30.06.2020 02:00:00 - - - - - - -
30.06.2020 01:00:00 - - - - - - -
30.06.2020 00:00:00 - - - - - - -
29.06.2020 23:00:00 - - - - - - -
29.06.2020 22:00:00 - - - - - - -
29.06.2020 21:00:00 - - - - - - -
29.06.2020 20:00:00 32,3 14,4 16 9 ESE 1013,5 30
29.06.2020 19:00:00 - - - - - - -
29.06.2020 18:00:00 - - - - - - -
29.06.2020 17:00:00 - - - - - - -
29.06.2020 16:00:00 - - - - - - -
29.06.2020 15:00:00 - - - - - - -
29.06.2020 14:00:00 33,6 18,5 15 8 ESE 1016,6 30
29.06.2020 13:00:00 - - - - - - -

tt = temperature
td = dewpoint
ff = wind speed
dd = wind direction
ppp = reduced air pressure
vv = visibility

Next stations